Probability
0 0 0 0 0 0 0 0 0 0 0 0 3 0 3 6 13 23 29 26 26 32 32 39 35 29 32 23 29 32 29 29 26 19 19 19 16 16 13 3 10 10 6 3
0 0 0 0 0 0 0 0 0 0 0 0 3 0 3 13 16 19 19 16 23 32 26 29 32 26 23 19 19 29 32 29 23 16 13 16 19 10 6 10 13 10 6 3
0 0 0 0 0 0 0 0 0 0 0 0 0 3 6 13 16 13 13 16 23 29 29 29 26 23 23 16 16 23 26 19 16 13 13 13 6 3 0 6 10 10 6 6
0 0 0 0 0 0 0 0 0 0 0 0 0 0 0 6 10 13 13 16 19 29 26 26 19 16 16 10 13 16 23 16 13 10 16 10 6 3 6 6 6 6 6 6
0 0 0 0 0 0 0 0 0 0 0 0 0 0 0 6 10 13 13 10 16 26 26 23 19 16 13 16 16 13 16 10 13 3 3 3 3 3 3 6 6 6 6 3
0 0 0 0 0 0 0 0 0 0 0 0 0 0 0 0 6 10 13 13 16 23 23 16 16 13 16 16 19 10 6 13 6 3 3 3 0 0 6 6 6 6 6 0
0 0 0 0 0 0 0 0 0 0 0 0 0 0 0 0 0 6 13 13 13 19 16 19 13 19 19 16 19 16 16 13 10 10 6 3 3 3 3 3 3 3 3 0
0 0 0 0 0 0 0 0 0 0 0 0 0 0 0 0 0 3 13 13 13 10 16 16 16 23 23 23 19 19 19 13 10 10 6 3 3 3 3 3 3 3 3 3
0 0 0 0 0 0 0 0 0 0 0 0 0 0 0 0 0 3 3 6 13 13 16 16 19 19 19 23 23 23 23 19 10 10 6 6 3 3 3 3 3 3 3 0
0 0 0 0 0 0 0 0 0 0 0 0 0 0 0 3 3 0 3 3 13 10 6 16 23 19 23 19 23 23 26 19 16 10 6 6 6 3 3 3 3 3 3 0
0 0 0 0 0 0 0 0 0 0 0 0 0 0 0 3 0 0 0 3 3 6 10 19 19 19 16 19 23 23 26 19 19 13 10 10 10 6 3 3 3 3 3 0
0 0 0 0 0 0 0 0 0 0 0 0 0 0 0 3 3 0 0 0 3 0 6 10 16 16 19 26 23 23 23 23 26 19 10 10 6 6 3 3 3 3 3 3
0 0 0 0 0 0 0 0 0 0 0 0 0 0 0 0 0 0 0 0 10 6 6 13 13 13 23 26 26 23 23 29 23 19 19 13 10 6 6 3 3 3 3 3
0 0 0 0 0 0 0 0 0 0 0 0 0 0 0 0 0 0 0 0 6 0 6 13 16 16 29 26 26 26 26 29 23 19 19 13 13 13 3 3 3 3 3 3
0 0 0 0 0 0 0 0 0 0 0 0 0 0 0 0 0 0 0 0 0 0 0 10 16 19 23 26 26 26 23 26 26 19 19 19 13 13 3 3 6 3 3 3
0 0 0 0 0 0 0 0 0 0 0 0 0 0 0 0 0 0 0 0 3 0 0 10 6 13 16 19 19 23 26 29 23 23 23 23 13 19 13 10 6 6 3 3
0 0 0 0 0 0 0 0 0 0 0 0 0 3 0 0 0 0 0 0 0 0 0 13 6 10 16 13 19 26 29 26 26 23 26 23 19 19 16 16 10 10 6 3
0 0 0 0 0 0 0 0 0 0 0 0 0 0 0 0 0 0 0 0 0 0 0 10 10 6 10 10 26 26 29 32 29 32 32 32 19 23 16 16 16 13 6 6
0 0 0 0 0 0 0 0 0 0 0 0 0 3 3 3 6 6 0 0 0 6 3 6 10 6 13 10 16 16 13 23 29 26 29 35 26 23 13 13 6 3 3 3
0 0 0 0 0 0 0 0 0 0 0 0 0 0 3 3 6 13 0 0 0 6 6 13 16 16 6 3 6 3 3 10 13 16 19 19 13 16 13 10 3 0 0 0
0 0 0 0 0 0 0 0 0 0 0 0 0 0 0 3 3 3 3 6 6 10 10 10 10 13 13 10 13 3 10 13 13 13 10 10 6 10 16 6 3 0 0 0
0 0 0 0 0 0 0 0 0 0 0 0 0 0 0 0 0 3 6 6 3 6 6 10 6 16 10 10 3 3 3 3 10 16 10 10 3 3 6 3 0 0 0 0
0 0 0 0 0 0 0 0 0 0 0 0 0 0 0 0 0 3 6 3 3 0 3 0 0 0 10 6 3 3 3 3 3 10 6 6 3 0 3 3 0 0 0 0
0 0 0 0 0 0 0 0 0 0 0 0 0 0 0 0 3 3 3 6 3 6 3 6 6 3 0 3 3 3 3 6 0 10 10 6 3 3 3 3 0 0 0 0
0 0 0 0 0 0 0 0 0 0 0 0 0 0 0 0 0 0 3 3 3 10 6 6 3 10 6 0 0 6 6 3 0 6 6 6 6 3 0 0 0 0 0 0
0 0 0 0 0 0 0 0 0 0 0 0 0 0 0 0 0 0 0 3 3 3 3 6 6 0 3 0 0 0 0 0 0 3 3 6 6 3 0 0 0 0 0 0
Height
5868 5871 5871 5871 5871 5871 5871 5870 5870 5869 5868 5866 5864 5863 5861 5859 5858 5856 5853 5849 5846 5843 5839 5835 5832 5830 5829 5832 5835 5839 5842 5847 5851 5854 5857 5861 5864 5867 5869 5871 5874 5876 5877 5879
5865 5866 5867 5866 5867 5867 5867 5867 5867 5867 5865 5864 5862 5860 5858 5856 5855 5853 5850 5847 5843 5840 5836 5833 5829 5827 5828 5829 5831 5836 5839 5842 5847 5851 5855 5858 5862 5865 5867 5869 5872 5874 5876 5877
5860 5862 5861 5862 5862 5863 5864 5864 5864 5864 5863 5860 5859 5858 5856 5855 5853 5851 5848 5845 5841 5838 5835 5832 5828 5827 5828 5829 5832 5835 5837 5840 5845 5849 5853 5857 5860 5863 5866 5868 5870 5872 5874 5876
5855 5857 5857 5857 5859 5860 5861 5862 5861 5861 5860 5859 5858 5855 5854 5852 5851 5849 5846 5844 5841 5837 5834 5832 5829 5828 5829 5830 5831 5834 5837 5840 5843 5847 5851 5855 5859 5862 5864 5867 5869 5871 5872 5874
5851 5852 5852 5853 5855 5856 5857 5858 5858 5858 5857 5856 5855 5853 5852 5850 5848 5846 5844 5842 5839 5837 5834 5832 5830 5829 5829 5830 5832 5834 5837 5840 5843 5847 5850 5854 5858 5861 5863 5865 5867 5869 5871 5873
5846 5847 5848 5849 5851 5852 5853 5854 5854 5854 5854 5853 5852 5851 5849 5847 5846 5844 5842 5839 5838 5836 5834 5832 5831 5830 5830 5831 5833 5835 5837 5840 5843 5847 5850 5853 5856 5859 5861 5864 5866 5868 5870 5872
5841 5843 5844 5846 5847 5848 5849 5850 5851 5850 5850 5850 5849 5847 5846 5845 5843 5842 5841 5838 5837 5835 5833 5832 5832 5831 5832 5832 5833 5835 5837 5840 5843 5846 5849 5853 5856 5858 5860 5863 5864 5866 5869 5871
5836 5839 5841 5842 5843 5844 5845 5846 5847 5847 5847 5846 5845 5844 5844 5843 5841 5840 5839 5837 5836 5835 5833 5833 5833 5833 5833 5833 5834 5836 5837 5839 5843 5846 5849 5852 5855 5857 5859 5862 5863 5865 5868 5870
5832 5835 5837 5838 5839 5840 5841 5842 5843 5843 5843 5843 5842 5842 5841 5840 5839 5839 5837 5835 5835 5834 5833 5833 5833 5834 5834 5834 5835 5837 5838 5840 5843 5845 5848 5851 5854 5856 5858 5860 5862 5864 5866 5868
5827 5829 5832 5833 5834 5835 5837 5838 5839 5839 5839 5838 5839 5839 5839 5838 5837 5837 5835 5834 5834 5833 5833 5833 5834 5834 5835 5835 5836 5837 5839 5840 5842 5845 5847 5850 5852 5854 5856 5858 5860 5863 5864 5866
5822 5824 5827 5829 5830 5831 5833 5834 5834 5834 5835 5835 5835 5838 5837 5836 5835 5834 5834 5833 5832 5832 5832 5832 5833 5834 5834 5835 5836 5837 5839 5840 5842 5844 5847 5849 5851 5853 5855 5857 5858 5860 5862 5864
5815 5818 5820 5823 5826 5826 5828 5829 5830 5830 5831 5831 5831 5835 5833 5833 5833 5832 5832 5832 5831 5830 5831 5831 5832 5833 5833 5835 5836 5837 5838 5840 5842 5844 5846 5847 5849 5851 5853 5854 5856 5858 5860 5861
5810 5812 5814 5817 5821 5822 5822 5823 5824 5825 5826 5826 5827 5831 5829 5830 5830 5830 5830 5830 5829 5829 5829 5830 5831 5831 5832 5833 5835 5836 5837 5839 5840 5842 5844 5845 5847 5848 5850 5852 5853 5855 5856 5857
5805 5806 5809 5811 5813 5815 5816 5817 5819 5820 5820 5821 5823 5824 5825 5825 5826 5826 5826 5826 5827 5827 5827 5828 5829 5830 5830 5831 5833 5834 5835 5837 5838 5839 5841 5843 5844 5846 5847 5848 5850 5851 5852 5853
5798 5800 5801 5803 5806 5808 5810 5812 5813 5814 5815 5816 5817 5818 5820 5820 5821 5822 5822 5823 5824 5825 5824 5825 5826 5827 5828 5829 5830 5832 5833 5834 5835 5836 5838 5839 5841 5842 5843 5844 5845 5846 5847 5847
5792 5793 5795 5797 5800 5801 5803 5805 5807 5808 5809 5810 5811 5812 5814 5815 5816 5817 5818 5819 5820 5821 5821 5822 5822 5823 5824 5825 5827 5828 5829 5831 5832 5833 5834 5836 5837 5838 5839 5839 5840 5841 5841 5841
5785 5787 5788 5790 5792 5793 5797 5799 5800 5802 5804 5805 5805 5807 5807 5809 5810 5811 5813 5814 5816 5817 5817 5818 5819 5819 5820 5822 5823 5824 5825 5826 5828 5829 5830 5831 5832 5832 5833 5834 5834 5834 5834 5834
5778 5779 5780 5782 5785 5786 5792 5791 5793 5795 5797 5797 5798 5800 5801 5803 5804 5806 5807 5809 5810 5811 5812 5813 5814 5815 5816 5818 5819 5820 5821 5822 5823 5824 5825 5825 5826 5826 5826 5826 5826 5826 5826 5827
5771 5772 5773 5775 5776 5779 5784 5785 5787 5788 5789 5790 5791 5793 5795 5796 5798 5800 5802 5803 5804 5805 5806 5807 5809 5810 5811 5812 5814 5815 5816 5817 5818 5818 5819 5819 5819 5819 5818 5819 5819 5819 5819 5818
5763 5765 5767 5768 5769 5772 5777 5779 5779 5782 5782 5784 5785 5787 5788 5789 5791 5794 5795 5797 5798 5799 5801 5802 5803 5804 5805 5806 5807 5809 5810 5810 5811 5811 5812 5812 5812 5812 5811 5811 5811 5811 5810 5810
5757 5758 5760 5761 5763 5766 5769 5771 5773 5776 5778 5778 5779 5781 5782 5783 5785 5787 5788 5790 5792 5794 5795 5796 5797 5799 5800 5800 5801 5802 5803 5804 5804 5804 5804 5804 5804 5804 5804 5803 5803 5803 5802 5801
5751 5752 5754 5755 5758 5762 5763 5764 5766 5768 5769 5771 5772 5774 5776 5777 5778 5779 5782 5784 5786 5787 5789 5790 5791 5792 5793 5793 5794 5795 5796 5796 5796 5797 5796 5797 5796 5796 5795 5795 5795 5794 5793 5792
5746 5747 5748 5751 5754 5755 5756 5757 5758 5759 5762 5764 5765 5767 5769 5771 5772 5773 5775 5778 5780 5782 5783 5784 5785 5786 5786 5787 5788 5788 5789 5789 5788 5788 5788 5788 5787 5788 5787 5787 5786 5785 5784 5782
5741 5742 5743 5745 5747 5748 5749 5750 5752 5753 5755 5757 5759 5761 5762 5764 5765 5766 5768 5771 5774 5776 5777 5778 5779 5779 5780 5780 5780 5781 5780 5779 5780 5780 5779 5778 5778 5778 5778 5777 5776 5775 5773 5771
5737 5738 5739 5740 5741 5742 5744 5746 5747 5747 5749 5751 5752 5754 5756 5757 5759 5761 5763 5765 5767 5769 5770 5771 5772 5772 5772 5772 5772 5772 5772 5771 5771 5770 5770 5769 5768 5768 5767 5767 5766 5764 5763 5761
5733 5734 5735 5736 5737 5738 5740 5741 5742 5743 5745 5746 5747 5748 5750 5752 5753 5755 5757 5759 5761 5763 5763 5764 5765 5766 5766 5765 5765 5764 5764 5763 5762 5762 5761 5761 5760 5759 5758 5757 5755 5753 5751 5749
Wind_Speed
17 15 13 12 11 11 9 9 10 11 14 16 17 17 18 16 17 17 17 16 15 15 15 13 11 9 10 13 16 16 19 19 17 17 17 17 16 14 13 12 11 12 11 10
17 14 14 14 12 11 9 10 10 12 15 16 18 18 18 18 16 16 16 15 14 13 12 11 9 6 7 11 13 14 15 17 17 17 17 17 16 14 13 13 12 12 11 10
15 16 17 16 14 12 10 10 12 13 16 18 18 19 18 16 15 15 15 14 13 12 10 9 6 3 5 9 11 12 12 16 17 18 18 17 15 14 13 13 12 12 12 11
16 17 18 16 14 12 10 11 13 15 16 17 18 19 18 17 14 13 12 10 11 10 9 7 3 2 3 6 8 10 12 14 16 17 17 16 15 15 14 14 13 13 13 12
16 18 18 17 14 13 11 12 14 16 16 17 16 18 18 16 13 9 8 8 10 9 8 6 3 1 4 5 7 11 12 14 15 17 17 17 16 15 13 15 14 13 13 13
17 18 18 16 15 14 12 14 15 16 16 17 15 17 15 13 9 6 6 7 8 8 7 6 4 2 4 7 8 11 12 14 15 16 17 16 16 14 14 15 14 14 13 13
17 17 16 15 15 14 14 15 17 17 16 15 15 15 12 8 6 4 5 5 6 6 6 4 4 3 4 6 7 10 12 13 14 15 16 16 15 15 15 14 14 14 13 13
16 15 17 16 15 14 15 16 16 17 16 15 15 14 11 8 6 5 5 6 5 5 5 4 3 3 4 5 6 8 10 13 14 15 16 16 15 14 15 14 14 13 13 13
16 16 17 18 16 16 16 16 16 17 17 17 14 13 9 8 6 5 5 6 5 3 3 3 3 3 3 5 6 7 10 12 13 14 16 15 15 15 15 14 13 13 14 13
18 17 18 19 20 18 18 17 17 18 19 18 15 13 11 9 6 6 5 5 4 2 1 1 2 2 3 5 5 6 9 11 12 13 14 14 15 15 15 15 14 14 14 13
22 21 19 21 21 19 19 19 20 20 20 19 18 14 11 10 9 8 6 5 4 3 1 1 2 3 4 5 6 6 8 10 11 12 12 13 14 15 15 15 15 14 14 13
25 25 23 23 22 21 21 20 20 21 21 21 20 17 14 13 12 11 9 6 4 3 2 3 3 4 5 6 6 7 8 9 11 11 12 13 14 14 15 15 15 15 15 15
28 29 27 24 24 24 24 23 23 22 22 22 21 20 18 16 14 13 10 7 5 4 3 4 5 5 7 7 7 8 8 9 10 11 11 12 13 14 15 15 16 16 16 16
31 30 30 28 26 25 26 25 25 25 24 24 22 21 19 18 16 14 11 9 8 6 5 6 6 7 8 9 9 9 10 10 11 11 12 12 13 14 15 16 17 17 18 18
31 31 32 32 30 28 28 28 28 27 26 25 24 23 20 19 18 15 12 11 11 9 8 7 7 8 9 10 10 11 11 11 12 12 13 13 14 15 16 17 18 19 19 20
32 32 31 31 31 31 31 30 30 30 27 26 26 26 23 22 20 19 15 13 12 11 9 9 9 10 11 11 12 12 13 13 13 14 15 15 16 17 18 19 19 20 21 22
32 33 32 31 30 31 32 31 31 29 28 28 28 26 25 24 21 18 16 13 13 11 11 11 10 11 11 12 13 14 15 15 15 15 16 17 18 19 19 21 22 22 23 24
31 33 33 32 30 30 28 30 29 29 29 29 28 27 27 26 23 20 17 15 14 12 13 12 12 12 13 14 14 15 16 16 16 17 17 17 19 21 21 22 23 24 24 25
29 29 30 30 30 29 27 27 27 27 28 29 29 26 26 26 24 21 18 15 14 13 12 12 13 15 15 16 16 17 17 18 18 18 19 19 21 22 23 24 25 26 27 28
26 27 28 28 30 28 25 26 26 28 28 28 28 26 25 24 24 21 18 17 15 14 14 15 16 17 17 17 18 19 20 20 20 21 21 22 23 23 24 25 26 28 28 28
24 26 26 27 27 26 24 26 27 28 27 27 28 28 28 26 23 20 19 17 17 17 16 16 17 17 18 19 19 20 21 22 23 23 24 24 24 24 25 25 27 28 28 29
20 22 23 24 25 24 23 24 25 28 28 28 28 28 27 25 23 22 20 19 18 17 17 18 18 18 20 21 21 21 22 23 24 25 26 26 27 26 26 27 27 28 29 31
17 18 20 22 22 22 22 22 23 24 25 26 27 26 27 27 24 22 21 20 19 18 18 18 19 20 21 22 22 23 24 26 26 26 27 27 27 27 28 29 29 31 32 33
16 15 16 19 20 20 20 21 21 21 23 24 23 23 24 23 22 21 21 20 19 18 19 20 21 21 22 23 24 24 26 28 28 28 28 28 28 29 30 31 32 33 34 34
15 15 15 16 17 17 16 18 19 18 20 20 19 19 20 19 18 18 17 17 17 19 20 21 20 21 23 24 25 26 27 28 29 29 30 30 30 30 32 33 34 35 35 36
14 13 13 13 13 14 14 14 15 15 15 14 14 14 15 15 16 15 15 16 17 19 19 20 21 22 24 25 26 27 28 29 30 32 33 33 34 34 35 36 37 38 37 38
Wind_Direction
251 248 244 241 239 243 257 271 286 294 300 306 307 306 306 311 314 318 319 322 320 319 318 312 294 272 241 220 216 215 212 211 211 207 203 202 201 203 206 203 201 201 201 202
245 238 235 235 236 246 259 274 285 288 293 295 297 296 300 303 310 314 319 325 326 325 328 320 305 280 234 218 212 209 210 206 201 198 197 195 196 201 203 198 196 196 194 191
238 231 231 230 234 242 252 268 278 283 287 292 293 295 297 303 307 315 317 322 328 330 332 332 324 250 218 204 206 208 203 197 192 189 191 190 193 196 194 192 192 190 187 185
231 230 231 231 233 241 249 262 273 279 283 286 289 293 294 299 303 310 323 329 338 339 341 337 338 181 176 178 191 188 183 184 184 183 183 186 188 189 190 189 187 187 184 181
229 229 229 228 229 238 245 258 270 277 281 284 289 294 297 298 301 305 323 337 344 348 356 359 1 136 165 160 173 177 177 175 177 179 181 183 185 188 187 186 185 182 179 178
230 233 235 228 226 232 243 256 267 273 278 286 293 298 300 303 302 306 325 333 342 349 2 16 32 93 141 155 160 171 173 174 177 178 178 181 183 185 183 183 184 181 177 178
230 230 232 230 229 230 235 250 263 270 277 287 297 305 301 297 290 297 329 345 359 3 9 35 46 88 126 146 159 169 175 177 178 178 180 182 182 183 183 185 184 183 181 181
231 223 226 228 234 235 234 245 260 271 280 287 295 305 300 297 287 302 329 348 359 10 19 53 74 102 132 145 157 165 168 173 179 180 181 183 182 185 186 188 188 187 188 190
238 224 222 224 224 233 236 245 257 268 275 281 292 301 295 306 297 295 321 345 354 15 41 57 85 99 127 146 158 164 169 175 181 185 185 189 191 192 193 194 195 194 194 196
246 235 224 226 228 230 239 243 250 259 269 275 285 294 300 301 298 301 315 336 343 345 14 116 140 148 151 156 163 165 171 174 178 182 187 191 192 193 194 194 195 196 200 204
248 244 231 231 231 235 241 246 252 261 266 274 281 288 291 298 304 306 302 303 314 312 273 213 201 185 178 169 170 172 174 178 182 184 187 192 196 197 199 199 202 205 210 216
244 247 243 237 237 243 244 246 253 259 262 268 275 279 279 289 295 297 297 286 287 279 240 227 227 210 197 191 187 183 184 186 189 191 195 199 201 202 204 206 210 216 222 229
243 247 248 243 241 242 245 248 249 253 259 265 268 273 278 283 291 289 289 279 273 263 250 243 237 224 213 208 204 202 199 199 199 201 204 207 209 211 214 217 221 227 232 237
244 247 248 246 244 244 245 248 250 251 255 261 263 269 274 280 282 281 279 274 262 253 234 233 235 228 224 222 218 213 211 210 210 211 214 216 219 221 224 228 231 235 240 245
242 245 247 247 248 248 248 247 249 251 255 260 262 264 266 271 275 275 272 271 264 256 242 237 236 230 230 229 228 225 223 223 223 223 225 228 229 232 234 238 241 243 247 251
245 247 247 247 249 251 250 250 250 251 252 258 260 259 262 268 271 273 273 269 268 259 248 243 241 237 234 232 232 232 232 233 233 235 238 238 239 241 243 246 248 251 253 255
248 251 251 251 252 253 248 248 248 248 252 258 261 262 261 265 266 270 269 263 269 259 251 247 241 234 235 236 236 236 238 239 239 242 245 246 247 248 250 252 254 256 258 259
250 252 252 253 253 251 247 247 248 249 252 255 260 261 262 262 260 261 262 262 260 263 252 244 245 242 238 238 239 240 242 243 245 248 251 254 253 254 257 258 258 258 260 262
251 251 250 251 251 250 247 249 250 252 251 252 257 259 257 259 258 259 262 260 257 258 255 250 248 245 242 241 242 244 246 247 249 251 254 257 257 260 260 261 260 261 262 265
249 251 251 251 249 250 248 248 250 249 249 251 255 258 259 260 261 257 255 256 257 253 254 256 255 249 244 244 245 247 250 252 253 254 255 258 260 261 262 264 264 264 267 270
250 248 247 249 250 253 253 252 250 249 249 251 255 256 258 258 257 251 250 250 253 251 253 255 253 247 245 245 247 250 254 255 257 257 258 260 263 264 265 266 267 269 271 272
251 246 247 248 252 255 253 253 253 252 251 252 253 254 254 253 252 253 251 250 254 249 253 258 256 253 250 250 251 254 259 259 258 260 261 261 263 266 269 271 271 272 274 273
256 253 249 249 254 257 254 254 257 254 252 254 253 254 254 253 257 255 249 250 250 247 251 254 255 258 257 257 259 259 261 261 262 262 262 264 265 268 270 272 272 273 275 276
260 257 253 250 254 258 255 253 255 255 251 255 253 253 254 255 253 253 244 246 249 248 250 256 259 260 260 261 263 264 264 262 260 263 267 272 272 272 274 274 275 277 278 279
262 259 257 254 255 258 257 257 256 256 252 253 252 250 254 259 256 250 242 239 241 249 255 258 260 263 264 264 264 265 267 267 266 267 269 272 273 273 277 278 279 280 281 282
259 260 256 252 253 260 264 258 257 255 255 251 247 251 252 249 249 247 241 241 247 253 257 260 260 262 264 265 266 268 270 269 270 268 270 272 274 277 278 280 281 281 281 283